AUA26Y EDDH-LOWW

Flight info

Callsign AUA26Y
Flight time 1h 11m
Altitude 39000
Route RAMAR Z998 RATMO DCT HDO DCT EVIKU DCT BITSI DCT MIKOV
Aircraft A320/M-SDE3FGHIRWY/LB1

Departure

Time 2026-05-06 07:30
Airport Hamburg Helmut Schmidt Airport (EDDH)

Arrival

Time 2026-05-06 08:41
Airport Vienna International Airport (LOWW)
Time Latitude Longitude Altitude Speed Heading
2026-05-06 06:57 53.63218 9.99957 51 ft 0 kts 322°
2026-05-06 07:21 53.63214 9.99963 51 ft 3 kts 322°
2026-05-06 07:21 53.63196 9.99986 51 ft 3 kts 322°
2026-05-06 07:22 53.63182 10.00005 51 ft 3 kts 298°
2026-05-06 07:22 53.63180 10.00032 51 ft 3 kts 236°
2026-05-06 07:22 53.63188 10.00051 51 ft 0 kts 232°
2026-05-06 07:26 53.63174 10.00021 51 ft 10 kts 232°
2026-05-06 07:27 53.63130 9.99929 49 ft 10 kts 228°
2026-05-06 07:27 53.63074 9.99893 50 ft 9 kts 172°
2026-05-06 07:27 53.63021 9.99936 48 ft 8 kts 151°
2026-05-06 07:27 53.62974 9.99980 50 ft 7 kts 152°
2026-05-06 07:28 53.62928 9.99986 50 ft 6 kts 205°
2026-05-06 07:28 53.62901 9.99931 50 ft 6 kts 242°
2026-05-06 07:28 53.62865 9.99811 47 ft 6 kts 245°
2026-05-06 07:29 53.62873 9.99748 47 ft 5 kts 304°
2026-05-06 07:29 53.62949 9.99672 49 ft 37 kts 333°
2026-05-06 07:29 53.63436 9.99256 50 ft 114 kts 333°
2026-05-06 07:29 53.64313 9.98477 101 ft 164 kts 336°
2026-05-06 07:30 53.65302 9.97595 823 ft 161 kts 338°
2026-05-06 07:30 53.65968 9.97062 1402 ft 159 kts 342°
2026-05-06 07:30 53.67405 9.95898 2073 ft 186 kts 342°
2026-05-06 07:30 53.68202 9.95237 2370 ft 201 kts 341°
2026-05-06 07:31 53.69601 9.94576 2816 ft 208 kts 10°
2026-05-06 07:31 53.70978 9.94813 3942 ft 201 kts 11°
2026-05-06 07:31 53.72426 9.95078 4612 ft 213 kts 17°
2026-05-06 07:31 53.73737 9.96177 5354 ft 218 kts 46°
2026-05-06 07:32 53.74543 9.98455 5826 ft 240 kts 69°
2026-05-06 07:32 53.75240 10.01136 6513 ft 256 kts 65°
2026-05-06 07:32 53.76035 10.03861 7387 ft 262 kts 64°
2026-05-06 07:32 53.76870 10.06641 8222 ft 270 kts 64°
2026-05-06 07:33 53.77726 10.09502 9145 ft 276 kts 63°
2026-05-06 07:33 53.78604 10.12457 9976 ft 287 kts 63°
2026-05-06 07:33 53.79524 10.15594 10415 ft 310 kts 64°
2026-05-06 07:33 53.80514 10.19011 10872 ft 327 kts 64°
2026-05-06 07:34 53.81519 10.22517 11642 ft 334 kts 64°
2026-05-06 07:34 53.82527 10.26049 12387 ft 341 kts 64°
2026-05-06 07:34 53.83546 10.29715 13166 ft 347 kts 69°
2026-05-06 07:34 53.84195 10.33670 13946 ft 351 kts 82°
2026-05-06 07:35 53.84298 10.37863 14652 ft 354 kts 96°
2026-05-06 07:35 53.83874 10.41929 15354 ft 357 kts 105°
2026-05-06 07:35 53.83308 10.46050 16089 ft 361 kts 104°
2026-05-06 07:35 53.82731 10.50271 16805 ft 365 kts 105°
2026-05-06 07:36 53.82163 10.54435 17430 ft 371 kts 105°
2026-05-06 07:36 53.81574 10.58724 18142 ft 377 kts 105°
2026-05-06 07:36 53.80979 10.63058 18775 ft 379 kts 105°
2026-05-06 07:36 53.80340 10.67411 19388 ft 382 kts 110°
2026-05-06 07:37 53.79317 10.71579 20046 ft 385 kts 121°
2026-05-06 07:37 53.77917 10.75439 20754 ft 387 kts 125°
2026-05-06 07:37 53.76471 10.79292 21456 ft 390 kts 124°
2026-05-06 07:37 53.75010 10.83198 22171 ft 394 kts 124°
2026-05-06 07:38 53.73551 10.87125 22903 ft 396 kts 124°
2026-05-06 07:38 53.72016 10.90987 23492 ft 398 kts 131°
2026-05-06 07:38 53.70130 10.94381 23979 ft 397 kts 141°
2026-05-06 07:38 53.67909 10.97147 24489 ft 400 kts 150°
2026-05-06 07:39 53.65528 10.99568 25028 ft 400 kts 150°
2026-05-06 07:39 53.63140 11.02004 25501 ft 402 kts 150°
2026-05-06 07:39 53.60756 11.04436 25944 ft 403 kts 150°
2026-05-06 07:39 53.58349 11.06888 26385 ft 406 kts 150°
2026-05-06 07:40 53.55925 11.09360 26832 ft 409 kts 149°
2026-05-06 07:40 53.53488 11.11838 27286 ft 411 kts 150°
2026-05-06 07:40 53.51031 11.14329 27709 ft 412 kts 150°
2026-05-06 07:40 53.48564 11.16821 28142 ft 415 kts 150°
2026-05-06 07:41 53.46079 11.19326 28575 ft 417 kts 149°
2026-05-06 07:41 53.43591 11.21839 28984 ft 419 kts 149°
2026-05-06 07:41 53.41085 11.24377 29363 ft 420 kts 149°
2026-05-06 07:41 53.38573 11.26914 29712 ft 424 kts 149°
2026-05-06 07:42 53.36035 11.29469 30047 ft 426 kts 149°
2026-05-06 07:42 53.33452 11.32061 30372 ft 428 kts 149°
2026-05-06 07:42 53.30896 11.34613 30706 ft 429 kts 149°
2026-05-06 07:42 53.28328 11.37176 30992 ft 431 kts 148°
2026-05-06 07:43 53.25893 11.40073 31250 ft 430 kts 139°
2026-05-06 07:43 53.23676 11.43441 31504 ft 432 kts 137°
2026-05-06 07:43 53.21467 11.46849 31845 ft 432 kts 137°
2026-05-06 07:43 53.19265 11.50230 32298 ft 429 kts 137°
2026-05-06 07:44 53.17078 11.53577 32759 ft 426 kts 137°
2026-05-06 07:44 53.14898 11.56911 33220 ft 424 kts 138°
2026-05-06 07:44 53.12735 11.60219 33688 ft 421 kts 138°
2026-05-06 07:44 53.10590 11.63505 34094 ft 419 kts 138°
2026-05-06 07:45 53.08443 11.66785 34409 ft 419 kts 138°
2026-05-06 07:45 53.06293 11.70059 34665 ft 420 kts 139°
2026-05-06 07:45 53.04135 11.73339 34913 ft 421 kts 139°
2026-05-06 07:45 53.01969 11.76629 35147 ft 422 kts 139°
2026-05-06 07:46 52.99803 11.79942 35331 ft 425 kts 136°
2026-05-06 07:46 52.97851 11.83642 35522 ft 428 kts 128°
2026-05-06 07:46 52.96051 11.87592 35742 ft 430 kts 129°
2026-05-06 07:46 52.94220 11.91604 35960 ft 431 kts 129°
2026-05-06 07:47 52.92407 11.95568 36187 ft 432 kts 129°
2026-05-06 07:47 52.90610 11.99484 36412 ft 433 kts 129°
2026-05-06 07:47 52.88783 12.03448 36624 ft 434 kts 129°
2026-05-06 07:47 52.86950 12.07427 36848 ft 435 kts 130°
2026-05-06 07:48 52.85112 12.11426 37053 ft 436 kts 130°
2026-05-06 07:48 52.83278 12.15415 37252 ft 437 kts 130°
2026-05-06 07:48 52.81438 12.19419 37432 ft 438 kts 130°
2026-05-06 07:48 52.79593 12.23435 37616 ft 439 kts 130°
2026-05-06 07:49 52.77740 12.27459 37822 ft 440 kts 130°
2026-05-06 07:49 52.75884 12.31480 38017 ft 441 kts 130°
2026-05-06 07:49 52.74018 12.35501 38236 ft 441 kts 131°
2026-05-06 07:49 52.72141 12.39515 38424 ft 441 kts 133°
2026-05-06 07:50 52.70055 12.43188 38583 ft 437 kts 142°
2026-05-06 07:50 52.67674 12.46245 38735 ft 434 kts 149°
2026-05-06 07:50 52.62691 12.51919 38785 ft 435 kts 149°
2026-05-06 07:51 52.57711 12.57586 38781 ft 436 kts 149°
2026-05-06 07:51 52.52722 12.63253 38780 ft 436 kts 149°
2026-05-06 07:52 52.47736 12.68907 38773 ft 436 kts 149°
2026-05-06 07:52 52.42744 12.74555 38773 ft 436 kts 149°
2026-05-06 07:53 52.37751 12.80188 38766 ft 436 kts 149°
2026-05-06 07:53 52.32754 12.85796 38761 ft 436 kts 149°
2026-05-06 07:54 52.27748 12.91392 38766 ft 436 kts 149°
2026-05-06 07:54 52.22743 12.96983 38737 ft 436 kts 149°
2026-05-06 07:55 52.17727 13.02576 38748 ft 437 kts 149°
2026-05-06 07:55 52.12705 13.08152 38745 ft 437 kts 149°
2026-05-06 07:56 52.07674 13.13713 38748 ft 437 kts 149°
2026-05-06 07:56 52.02639 13.19269 38752 ft 438 kts 149°
2026-05-06 07:57 51.97605 13.24825 38750 ft 438 kts 149°
2026-05-06 07:57 51.92557 13.30376 38741 ft 438 kts 149°
2026-05-06 07:58 51.87514 13.35895 38751 ft 438 kts 150°
2026-05-06 07:58 51.82426 13.41434 38757 ft 438 kts 150°
2026-05-06 07:59 51.77409 13.46903 38760 ft 438 kts 149°
2026-05-06 07:59 51.72329 13.52438 38756 ft 438 kts 150°
2026-05-06 08:00 51.67275 13.57915 38760 ft 438 kts 150°
2026-05-06 08:00 51.62219 13.63365 38741 ft 437 kts 150°
2026-05-06 08:01 51.57169 13.68811 38756 ft 437 kts 150°
2026-05-06 08:01 51.52125 13.74234 38761 ft 436 kts 150°
2026-05-06 08:02 51.47075 13.79641 38759 ft 436 kts 150°
2026-05-06 08:02 51.42026 13.85028 38763 ft 435 kts 150°
2026-05-06 08:03 51.36989 13.90397 38758 ft 435 kts 150°
2026-05-06 08:03 51.31955 13.95757 38764 ft 434 kts 150°
2026-05-06 08:04 51.26918 14.01097 38767 ft 435 kts 150°
2026-05-06 08:04 51.21874 14.06432 38771 ft 435 kts 150°
2026-05-06 08:05 51.16814 14.11765 38760 ft 436 kts 150°
2026-05-06 08:05 51.11752 14.17088 38766 ft 436 kts 150°
2026-05-06 08:06 51.07506 14.21543 38772 ft 436 kts 150°
2026-05-06 08:06 51.02431 14.26854 38781 ft 437 kts 150°
2026-05-06 08:07 50.97350 14.32148 38773 ft 437 kts 151°
2026-05-06 08:07 50.92108 14.36867 38785 ft 429 kts 163°
2026-05-06 08:08 50.86421 14.39264 38779 ft 425 kts 171°
2026-05-06 08:08 50.80645 14.41398 38793 ft 426 kts 170°
2026-05-06 08:09 50.74866 14.43541 38797 ft 426 kts 170°
2026-05-06 08:09 50.69079 14.45678 38800 ft 427 kts 170°
2026-05-06 08:10 50.63250 14.47831 38799 ft 428 kts 171°
2026-05-06 08:10 50.57453 14.49976 38804 ft 428 kts 171°
2026-05-06 08:11 50.51648 14.52102 38813 ft 428 kts 171°
2026-05-06 08:11 50.46023 14.55317 38809 ft 437 kts 154°
2026-05-06 08:12 50.43520 14.58082 38815 ft 444 kts 143°
2026-05-06 08:12 50.41275 14.61423 38811 ft 445 kts 140°
2026-05-06 08:12 50.36831 14.68187 38802 ft 446 kts 140°
2026-05-06 08:13 50.32373 14.74938 38807 ft 446 kts 141°
2026-05-06 08:13 50.27911 14.81668 38808 ft 446 kts 141°
2026-05-06 08:14 50.23433 14.88387 38794 ft 446 kts 141°
2026-05-06 08:14 50.18957 14.95090 38803 ft 446 kts 141°
2026-05-06 08:15 50.14475 15.01792 38814 ft 446 kts 141°
2026-05-06 08:15 50.09985 15.08480 38815 ft 447 kts 141°
2026-05-06 08:16 50.05493 15.15166 38831 ft 447 kts 141°
2026-05-06 08:16 50.00992 15.21837 38800 ft 447 kts 141°
2026-05-06 08:17 49.96493 15.28492 38824 ft 446 kts 141°
2026-05-06 08:17 49.91999 15.35130 38835 ft 446 kts 141°
2026-05-06 08:18 49.87509 15.41746 38835 ft 446 kts 141°
2026-05-06 08:18 49.85254 15.45059 38612 ft 445 kts 141°
2026-05-06 08:18 49.83006 15.48353 38361 ft 445 kts 142°
2026-05-06 08:19 49.80752 15.51647 38081 ft 445 kts 142°
2026-05-06 08:19 49.78503 15.54927 37789 ft 445 kts 142°
2026-05-06 08:19 49.76251 15.58205 37439 ft 443 kts 142°
2026-05-06 08:19 49.74004 15.61478 36712 ft 444 kts 143°
2026-05-06 08:20 49.71757 15.64753 35907 ft 445 kts 143°
2026-05-06 08:20 49.69497 15.68049 35066 ft 448 kts 143°
2026-05-06 08:20 49.67234 15.71346 34434 ft 445 kts 144°
2026-05-06 08:20 49.64991 15.74613 33865 ft 441 kts 144°
2026-05-06 08:21 49.62765 15.77846 33230 ft 437 kts 145°
2026-05-06 08:21 49.60572 15.81034 32665 ft 431 kts 145°
2026-05-06 08:21 49.58394 15.84181 32105 ft 426 kts 145°
2026-05-06 08:21 49.56235 15.87293 31547 ft 423 kts 145°
2026-05-06 08:22 49.54096 15.90372 30964 ft 419 kts 144°
2026-05-06 08:22 49.51979 15.93419 30454 ft 415 kts 144°
2026-05-06 08:22 49.49845 15.96482 29905 ft 412 kts 144°
2026-05-06 08:22 49.47757 15.99474 29335 ft 408 kts 144°
2026-05-06 08:23 49.45692 16.02433 28818 ft 403 kts 144°
2026-05-06 08:23 49.43653 16.05356 28320 ft 399 kts 144°
2026-05-06 08:23 49.41661 16.08210 27831 ft 395 kts 144°
2026-05-06 08:23 49.39662 16.11066 27359 ft 390 kts 144°
2026-05-06 08:24 49.37679 16.13891 26888 ft 387 kts 144°
2026-05-06 08:24 49.35714 16.16683 26433 ft 383 kts 144°
2026-05-06 08:24 49.33768 16.19445 25985 ft 380 kts 144°
2026-05-06 08:24 49.31822 16.22156 25509 ft 374 kts 147°
2026-05-06 08:25 49.29719 16.24397 25099 ft 363 kts 156°
2026-05-06 08:25 49.27432 16.25926 24343 ft 359 kts 171°
2026-05-06 08:25 49.24963 16.26617 23454 ft 365 kts 176°
2026-05-06 08:25 49.22383 16.27232 22405 ft 375 kts 176°
2026-05-06 08:26 49.19840 16.27827 21911 ft 372 kts 176°
2026-05-06 08:26 49.17299 16.28423 21417 ft 367 kts 176°
2026-05-06 08:26 49.14781 16.29017 20885 ft 365 kts 175°
2026-05-06 08:26 49.12251 16.29614 20349 ft 362 kts 175°
2026-05-06 08:27 49.09769 16.30201 19831 ft 360 kts 175°
2026-05-06 08:27 49.07303 16.30784 19315 ft 358 kts 175°
2026-05-06 08:27 49.04855 16.31364 18810 ft 355 kts 175°
2026-05-06 08:27 49.02416 16.31943 18310 ft 354 kts 175°
2026-05-06 08:28 48.99986 16.32516 17742 ft 353 kts 175°
2026-05-06 08:28 48.97567 16.33082 17241 ft 350 kts 175°
2026-05-06 08:28 48.95174 16.33645 16792 ft 346 kts 175°
2026-05-06 08:28 48.92797 16.34204 16271 ft 344 kts 175°
2026-05-06 08:29 48.90446 16.34755 15788 ft 342 kts 175°
2026-05-06 08:29 48.88114 16.35297 15368 ft 338 kts 175°
2026-05-06 08:29 48.85804 16.35834 14966 ft 334 kts 175°
2026-05-06 08:29 48.83507 16.36368 14517 ft 332 kts 175°
2026-05-06 08:30 48.81239 16.36897 14063 ft 330 kts 175°
2026-05-06 08:30 48.78987 16.37426 13619 ft 327 kts 176°
2026-05-06 08:30 48.76749 16.37952 13148 ft 323 kts 175°
2026-05-06 08:30 48.74541 16.38474 12728 ft 319 kts 175°
2026-05-06 08:31 48.72365 16.38986 12305 ft 314 kts 175°
2026-05-06 08:31 48.70216 16.39487 11892 ft 311 kts 175°
2026-05-06 08:31 48.68094 16.39980 11467 ft 307 kts 174°
2026-05-06 08:31 48.65995 16.40468 11058 ft 304 kts 174°
2026-05-06 08:32 48.63890 16.40956 10624 ft 300 kts 174°
2026-05-06 08:32 48.61837 16.41430 10211 ft 297 kts 174°
2026-05-06 08:32 48.59822 16.41895 9998 ft 288 kts 173°
2026-05-06 08:32 48.57884 16.42346 9858 ft 277 kts 173°
2026-05-06 08:33 48.55991 16.42786 9382 ft 278 kts 173°
2026-05-06 08:33 48.54099 16.43224 9051 ft 273 kts 173°
2026-05-06 08:33 48.52227 16.43654 8607 ft 271 kts 173°
2026-05-06 08:33 48.50361 16.44082 8167 ft 271 kts 172°
2026-05-06 08:34 48.48503 16.44510 7723 ft 270 kts 172°
2026-05-06 08:34 48.44736 16.45375 6447 ft 282 kts 172°
2026-05-06 08:34 48.42809 16.45818 6102 ft 276 kts 172°
2026-05-06 08:35 48.40960 16.46245 5958 ft 262 kts 172°
2026-05-06 08:35 48.39203 16.46651 5841 ft 249 kts 172°
2026-05-06 08:35 48.37537 16.47034 5724 ft 236 kts 171°
2026-05-06 08:35 48.35948 16.47594 5418 ft 233 kts 165°
2026-05-06 08:36 48.34405 16.48267 5137 ft 230 kts 164°
2026-05-06 08:36 48.32883 16.48927 4831 ft 226 kts 165°
2026-05-06 08:36 48.31383 16.49568 4523 ft 222 kts 164°
2026-05-06 08:36 48.29913 16.50195 4224 ft 217 kts 165°
2026-05-06 08:37 48.28468 16.50810 3944 ft 214 kts 165°
2026-05-06 08:37 48.27045 16.51416 3643 ft 212 kts 165°
2026-05-06 08:37 48.25634 16.52018 3360 ft 210 kts 164°
2026-05-06 08:37 48.24214 16.52622 3089 ft 208 kts 164°
2026-05-06 08:38 48.22822 16.53215 2809 ft 208 kts 164°
2026-05-06 08:38 48.21455 16.53795 2524 ft 199 kts 164°
2026-05-06 08:38 48.20169 16.54341 2301 ft 186 kts 163°
2026-05-06 08:38 48.18976 16.54848 2028 ft 169 kts 164°
2026-05-06 08:39 48.17910 16.55301 1823 ft 152 kts 164°
2026-05-06 08:39 48.16940 16.55712 1642 ft 137 kts 164°
2026-05-06 08:39 48.16049 16.56093 1449 ft 130 kts 163°
2026-05-06 08:39 48.15477 16.56335 1326 ft 128 kts 164°
2026-05-06 08:40 48.14627 16.56687 1187 ft 126 kts 165°
2026-05-06 08:40 48.13771 16.57030 1050 ft 126 kts 163°
2026-05-06 08:40 48.12934 16.57391 842 ft 125 kts 161°
2026-05-06 08:40 48.12094 16.57765 675 ft 126 kts 163°
2026-05-06 08:41 48.11267 16.58121 612 ft 105 kts 163°
2026-05-06 08:41 48.10732 16.58351 617 ft 56 kts 165°
2026-05-06 08:41 48.10474 16.58455 618 ft 33 kts 168°
2026-05-06 08:41 48.10290 16.58457 619 ft 22 kts 189°
2026-05-06 08:42 48.10165 16.58412 608 ft 13 kts 201°
2026-05-06 08:42 48.10158 16.58314 612 ft 11 kts 323°
2026-05-06 08:42 48.10229 16.58278 614 ft 10 kts 344°
2026-05-06 08:42 48.10297 16.58249 617 ft 10 kts 344°
2026-05-06 08:43 48.10362 16.58221 609 ft 12 kts 344°
2026-05-06 08:43 48.10496 16.58163 612 ft 24 kts 345°
2026-05-06 08:43 48.10664 16.58095 611 ft 26 kts 344°
2026-05-06 08:43 48.10839 16.58021 620 ft 22 kts 344°
2026-05-06 08:44 48.10973 16.57922 612 ft 22 kts 316°
2026-05-06 08:44 48.11064 16.57793 616 ft 16 kts 331°
2026-05-06 08:44 48.11166 16.57743 615 ft 15 kts 344°
2026-05-06 08:44 48.11264 16.57701 613 ft 14 kts 344°
2026-05-06 08:45 48.11354 16.57663 614 ft 13 kts 344°
2026-05-06 08:45 48.11437 16.57627 616 ft 12 kts 344°
2026-05-06 08:45 48.11518 16.57592 619 ft 15 kts 344°
2026-05-06 08:45 48.11616 16.57550 613 ft 14 kts 344°
2026-05-06 08:46 48.11707 16.57511 618 ft 13 kts 344°
2026-05-06 08:46 48.11790 16.57471 615 ft 12 kts 329°
2026-05-06 08:46 48.11809 16.57361 613 ft 11 kts 282°
2026-05-06 08:46 48.11839 16.57262 612 ft 10 kts 295°
2026-05-06 08:47 48.11857 16.57164 608 ft 9 kts 271°
2026-05-06 08:47 48.11877 16.57074 616 ft 9 kts 297°
2026-05-06 08:47 48.11904 16.56993 612 ft 8 kts 296°
2026-05-06 08:47 48.11929 16.56916 608 ft 8 kts 296°
2026-05-06 08:48 48.11932 16.56867 617 ft 4 kts 244°
2026-05-06 08:48 48.11907 16.56842 612 ft 5 kts 207°
2026-05-06 08:48 48.11880 16.56822 614 ft 0 kts 206°